Regional Weather Roundup
Issued by NWS Green Bay, WI

Home | Current Version | Previous Version | Graphics & Text | Print | Product List | Glossary Off
Versions: 1 2 3 4 5 6 7 8 9 10 11 12 13 14 15 16 17 18 19 20 21 22 23 24 25 26 27 28 29 30 31 32 33 34 35 36 37 38 39 40 41 42 43 44 45 46 47 48 49 50

000
ASUS43 KGRB 270811
RWRGRB

NORTH-CENTRAL AND NORTHEAST WISCONSIN REGIONAL WEATHER ROUNDUP
NATIONAL WEATHER SERVICE GREEN BAY WI
300 AM CDT WED MAY 27 2015

WIZ005-009-010>012-018-019-270900-
NORTH CENTRAL WISCONSIN

CITY           SKY/WX    TMP DP  RH WIND       PRES   REMARKS
IRONWOOD       CLOUDY    48  48 100 W6        29.73S
MANITOWISH WTR DRIZZLE   51  51 100 N8        29.74R
ARBOR VITAE    RAIN      53  52  95 N10G16    29.72S
EAGLE RIVER    RAIN      52  52 100 N9G18     29.71R
LAND O LAKES   RAIN      52  52  99 N12       29.72S
RHINELANDER    LGT RAIN  53  52  96 NW9       29.71R
PHILLIPS       LGT RAIN  50  50 100 NW3       29.75S
ANTIGO         CLOUDY    56  55  97 NW14G21   29.69R
TOMAHAWK       RAIN      52  51  95 NW7       29.73R
MERRILL        DRIZZLE   55  55  99 NW9       29.72R
$$

WIZ013-073-270900-
NORTHEAST WISCONSIN

CITY           SKY/WX    TMP DP  RH WIND       PRES   REMARKS
IRON MOUNTAIN  LGT RAIN  56  54  93 NW5       29.63R FOG
MARINETTE      CLOUDY    61  57  88 SW6       29.60S
OCONTO         CLOUDY    61  61 100 W7        29.61R
$$

WIZ017-030-035>037-045-270900-
CENTRAL WISCONSIN

CITY           SKY/WX    TMP DP  RH WIND       PRES   REMARKS
MEDFORD        DRIZZLE   53  52  97 W8        29.76R
WAUSAU         LGT RAIN  56  55  97 NW13      29.71R FOG
MOSINEE        RAIN      55  55 100 W13       29.74R
MARSHFIELD     LGT RAIN  57  54  89 W10G22    29.76R
WISC RAPIDS    LGT RAIN  59  55  87 W10       29.77R
STEVENS POINT  HVY RAIN  56  55  97 W12G18    29.74R
WAUPACA        CLOUDY    62  61  94 W12G17    29.73R
SHAWANO        CLOUDY    63  61  93 W13       29.67R
CLINTONVILLE   CLOUDY    61  59  94 W14G21    29.69R
$$

WIZ038-039-048-051-270900-
FOX VALLEY

CITY           SKY/WX    TMP DP  RH WIND       PRES   REMARKS
NWS GREEN BAY  CLOUDY    64  59  83 W17G25    29.68R
APPLETON       CLOUDY    61  55  82 SW15G21   29.73R
OSHKOSH        CLOUDY    63  57  81 SW9G18    29.74R
FOND DU LAC    CLOUDY    62  57  83 SW12      29.76S
$$

WIZ022-050-052-270900-
EAST CENTRAL WISCONSIN

CITY           SKY/WX    TMP DP  RH WIND       PRES   REMARKS
STURGEON BAY   CLOUDY    61  57  88 SW17G24   29.64S
MANITOWOC      CLOUDY    64  58  80 W16G28    29.71S
SHEBOYGAN      CLEAR     62  57  83 SW18      29.75R
$$

LMZ563-521-522-541>543-270900-
LAKESHORE

STATION/POSITION TIME  TEMP    WIND        PRES    VSBY  WAVE
                       AIR SEA DIR/SP/G                  HT/PER
                 (UTC) (F)     (DEG/KT/KT) (MB)    (MI)  (FT/S)
SHEBOYGAN LKSHOR 0800   63     230/ 18/ 22 1007.4S
KEWAUNEE LKSHORE 0700          220/ 17/ 25 1003.8F
ALGOMA MARINA    0738          260/ 28/ 39   N/A
NORTHPORT PIER   0700   50     140/  8/  9 1003.4F
N MID LAKE BUOY  0750   44 37  190/ 17/ 21 1003.8F         4/ 5
SISTER BAY LKSHO 0718   52     160/ 11/ 12   N/A
CHAMBERS ISLAND  0700   59     170/  8/ 13 1003.0F
MENOMINEE LKSHOR 0700          200/ 13/ 18 1003.2
$$



USA.gov is the U.S. government's official web portal to all federal, state and local government web resources and services.